TimeEST,TemperatureF,Dew PointF,Humidity,Sea Level PressureIn,VisibilityMPH,Wind Direction,Wind SpeedMPH,Gust SpeedMPH,PrecipitationIn,Events,Conditions,WindDirDegrees,DateUTC
12:15 AM,32.0,32.0,100,30.36,10.0,Calm,Calm,-,N/A,,Clear,0,2012-12-14 05:15:00
12:35 AM,30.2,30.2,100,30.35,10.0,Calm,Calm,-,N/A,,Clear,0,2012-12-14 05:35:00
12:55 AM,30.2,30.2,100,30.35,9.0,Calm,Calm,-,N/A,,Clear,0,2012-12-14 05:55:00
2:15 AM,28.4,28.4,100,30.35,8.0,Calm,Calm,-,N/A,,Clear,0,2012-12-14 07:15:00
2:55 AM,28.4,28.4,100,30.35,8.0,Calm,Calm,-,N/A,,Clear,0,2012-12-14 07:55:00
3:15 AM,28.4,28.4,100,30.34,8.0,Calm,Calm,-,N/A,,Clear,0,2012-12-14 08:15:00
3:35 AM,28.4,28.4,100,30.34,10.0,Calm,Calm,-,N/A,,Clear,0,2012-12-14 08:35:00
3:55 AM,28.4,28.4,100,30.34,10.0,Calm,Calm,-,N/A,,Clear,0,2012-12-14 08:55:00
4:15 AM,28.4,28.4,100,30.34,10.0,Calm,Calm,-,N/A,,Clear,0,2012-12-14 09:15:00
4:35 AM,28.4,28.4,100,30.34,10.0,Calm,Calm,-,N/A,,Clear,0,2012-12-14 09:35:00
4:55 AM,28.4,28.4,100,30.34,10.0,Calm,Calm,-,N/A,,Clear,0,2012-12-14 09:55:00
5:15 AM,28.4,28.4,100,30.34,10.0,Calm,Calm,-,N/A,,Clear,0,2012-12-14 10:15:00
5:35 AM,28.4,28.4,100,30.34,10.0,Calm,Calm,-,N/A,,Clear,0,2012-12-14 10:35:00
5:55 AM,26.6,26.6,100,30.36,10.0,Calm,Calm,-,N/A,,Clear,0,2012-12-14 10:55:00
6:15 AM,26.6,26.6,100,30.37,10.0,Calm,Calm,-,N/A,,Clear,0,2012-12-14 11:15:00
6:35 AM,26.6,26.6,100,30.38,10.0,Calm,Calm,-,N/A,,Clear,0,2012-12-14 11:35:00
6:55 AM,26.6,26.6,100,30.37,10.0,Calm,Calm,-,N/A,,Clear,0,2012-12-14 11:55:00
7:15 AM,26.6,26.6,100,30.37,10.0,Calm,Calm,-,N/A,,Clear,0,2012-12-14 12:15:00
7:35 AM,26.6,26.6,100,30.36,9.0,Calm,Calm,-,N/A,,Clear,0,2012-12-14 12:35:00
7:55 AM,26.6,26.6,100,30.37,10.0,Calm,Calm,-,N/A,,Clear,0,2012-12-14 12:55:00
8:15 AM,26.6,26.6,100,30.37,10.0,Calm,Calm,-,N/A,,Clear,0,2012-12-14 13:15:00
8:35 AM,28.4,28.4,100,30.38,10.0,Calm,Calm,-,N/A,,Clear,0,2012-12-14 13:35:00
8:55 AM,32.0,32.0,100,30.39,10.0,Calm,Calm,-,N/A,,Clear,0,2012-12-14 13:55:00
9:15 AM,33.8,33.8,100,30.39,10.0,Calm,Calm,-,N/A,,Clear,0,2012-12-14 14:15:00
9:35 AM,37.4,35.6,93,30.40,10.0,Calm,Calm,-,N/A,,Clear,0,2012-12-14 14:35:00
10:15 AM,44.6,33.8,66,30.40,10.0,Calm,Calm,-,N/A,,Clear,0,2012-12-14 15:15:00
10:35 AM,46.4,32.0,57,30.40,10.0,Calm,Calm,-,N/A,,Clear,0,2012-12-14 15:35:00
10:55 AM,48.2,32.0,54,30.39,10.0,Calm,Calm,-,N/A,,Clear,0,2012-12-14 15:55:00
11:15 AM,48.2,33.8,58,30.39,10.0,Calm,Calm,-,N/A,,Clear,0,2012-12-14 16:15:00
11:35 AM,50.0,32.0,50,30.37,10.0,Calm,Calm,-,N/A,,Clear,0,2012-12-14 16:35:00
11:55 AM,51.8,32.0,47,30.36,10.0,Calm,Calm,-,N/A,,Clear,0,2012-12-14 16:55:00
12:15 PM,51.8,32.0,47,30.34,10.0,Calm,Calm,-,N/A,,Clear,0,2012-12-14 17:15:00
12:35 PM,53.6,30.2,41,30.33,10.0,Calm,Calm,-,N/A,,Clear,0,2012-12-14 17:35:00
12:55 PM,53.6,28.4,38,30.32,10.0,Calm,Calm,-,N/A,,Clear,0,2012-12-14 17:55:00
1:15 PM,55.4,28.4,36,30.31,10.0,Calm,Calm,-,N/A,,Clear,0,2012-12-14 18:15:00
1:35 PM,55.4,28.4,36,30.30,10.0,Calm,Calm,-,N/A,,Clear,0,2012-12-14 18:35:00
2:15 PM,57.2,28.4,33,30.28,10.0,Calm,Calm,-,N/A,,Clear,0,2012-12-14 19:15:00
2:35 PM,57.2,28.4,33,30.26,10.0,Calm,Calm,-,N/A,,Clear,0,2012-12-14 19:35:00
2:55 PM,55.4,28.4,36,30.26,9.0,Calm,Calm,-,N/A,,Clear,0,2012-12-14 19:55:00
3:15 PM,55.4,30.2,38,30.25,10.0,Calm,Calm,-,N/A,,Clear,0,2012-12-14 20:15:00
3:35 PM,57.2,28.4,33,30.24,10.0,Calm,Calm,-,N/A,,Clear,0,2012-12-14 20:35:00
3:55 PM,57.2,32.0,38,30.24,10.0,Calm,Calm,-,N/A,,Clear,0,2012-12-14 20:55:00
4:15 PM,55.4,28.4,36,30.24,10.0,Calm,Calm,-,N/A,,Clear,0,2012-12-14 21:15:00
4:35 PM,53.6,32.0,44,30.24,10.0,Calm,Calm,-,N/A,,Clear,0,2012-12-14 21:35:00
4:55 PM,50.0,35.6,58,30.24,10.0,Calm,Calm,-,N/A,,Clear,0,2012-12-14 21:55:00
5:15 PM,46.4,37.4,71,30.26,10.0,Calm,Calm,-,N/A,,Clear,0,2012-12-14 22:15:00
5:35 PM,42.8,39.2,87,30.26,10.0,Calm,Calm,-,N/A,,Clear,0,2012-12-14 22:35:00
5:55 PM,41.0,39.2,93,30.26,10.0,Calm,Calm,-,N/A,,Clear,0,2012-12-14 22:55:00
6:15 PM,39.2,39.2,100,30.26,10.0,Calm,Calm,-,N/A,,Clear,0,2012-12-14 23:15:00
6:35 PM,37.4,37.4,100,30.25,10.0,Calm,Calm,-,N/A,,Clear,0,2012-12-14 23:35:00
6:55 PM,37.4,37.4,100,30.26,10.0,Calm,Calm,-,N/A,,Clear,0,2012-12-14 23:55:00
7:15 PM,35.6,35.6,100,30.26,10.0,Calm,Calm,-,N/A,,Clear,0,2012-12-15 00:15:00
7:35 PM,35.6,35.6,100,30.27,10.0,Calm,Calm,-,N/A,,Clear,0,2012-12-15 00:35:00
7:55 PM,33.8,33.8,100,30.26,10.0,Calm,Calm,-,N/A,,Clear,0,2012-12-15 00:55:00
8:35 PM,32.0,32.0,100,30.25,10.0,Calm,Calm,-,N/A,,Clear,0,2012-12-15 01:35:00
8:55 PM,32.0,32.0,100,30.25,10.0,Calm,Calm,-,N/A,,Clear,0,2012-12-15 01:55:00
9:15 PM,32.0,32.0,100,30.26,10.0,Calm,Calm,-,N/A,,Clear,0,2012-12-15 02:15:00
9:55 PM,32.0,32.0,100,30.27,10.0,Calm,Calm,-,N/A,,Clear,0,2012-12-15 02:55:00
10:15 PM,32.0,32.0,100,30.27,10.0,Calm,Calm,-,N/A,,Clear,0,2012-12-15 03:15:00
10:35 PM,32.0,32.0,100,30.27,10.0,Calm,Calm,-,N/A,,Clear,0,2012-12-15 03:35:00
10:55 PM,32.0,32.0,100,30.27,10.0,Calm,Calm,-,N/A,,Clear,0,2012-12-15 03:55:00
11:15 PM,32.0,32.0,100,30.27,10.0,Calm,Calm,-,N/A,,Clear,0,2012-12-15 04:15:00
11:35 PM,32.0,32.0,100,30.26,9.0,Calm,Calm,-,N/A,,Clear,0,2012-12-15 04:35:00
11:55 PM,32.0,32.0,100,30.26,9.0,Calm,Calm,-,N/A,,Clear,0,2012-12-15 04:55:00